Location: Wald
(31.7579°N, 86.6655°W)
Time: 12:29:45
(UTC+00:00)

ARIANE 5 R/B - Pass Details

Date: 14 July 2020
Orbit: 749 x 794 km, 98.6° (Epoch: 08 August)

Event Time Altitude Azimuth Distance (km) Brightness Sun altitude
Rises 07:56:37 0° 22° (NNE) 3,240 6.9 -29.0°
Reaches altitude 10° 07:59:04 10° 30° (NNE) 2,317 5.9 -28.7°
Maximum altitude 08:03:50 39° 99° (E) 1,144 3.5 -28.1°
Enters shadow 08:04:30 38° 118° (ESE) 1,178 3.4 -28.0°
